Location: Corona
(40.7470°N, 73.8601°W)
Time: 05:56:58
(UTC+00:00)

MONITOR-E - Pass Details

Date: 22 September 2019
Orbit: 347 x 348 km, 97.1° (Epoch: 22 October)

Event Time Altitude Azimuth Distance (km) Brightness Sun altitude
Exits shadow 23:48:49 11° 147° (SSE) 1,276 6.3 -11.4°
Maximum altitude 23:51:24 42° 75° (ENE) 522 4.3 -11.8°
Drops below altitude 10° 23:54:05 10° 3° (N) 1,331 6.9 -12.3°
Sets 23:56:04 0° 356° (N) 2,179 8.1 -12.7°
